When you browse on this site, cookies collect data to enhance your experience and personalize the content and advertising you see.
Visit our Privacy Policy to learn more. By continuing to use the site, you agree to this use of cookies and data.
  • En España
  • Lista de países
  • Para 7 días
  • Temperatura del agua
  • Mapa Satelital
  • El tiempo en el mapa
  • Informadores
  • user-avatar
    Iniciar sesión

    Tiempo cada hora Cam Ranh

    Hoy, 23 Mayo, Jueves

    Tiempo Temperatura Precipitaciones Viento Presión Humedad
    00:00 +28°C° 0 mm 2 mps 752 mmHg 91%
    01:00 +28°C° 0 mm 2 mps 752 mmHg 90%
    02:00 +27°C° 0 mm 2 mps 752 mmHg 89%
    03:00 +27°C° 0 mm 2 mps 752 mmHg 88%
    04:00 +27°C° 0 mm 2 mps 752 mmHg 87%
    05:00 +28°C° 0 mm 2 mps 752 mmHg 83%
    06:00 +29°C° 0 mm 1 mps 752 mmHg 78%
    07:00 +30°C° 0 mm 1 mps 752 mmHg 74%
    08:00 +32°C° 0 mm 1 mps 752 mmHg 66%
    09:00 +34°C° 0 mm 1 mps 752 mmHg 58%
    10:00 +37°C° 0 mm 2 mps 753 mmHg 50%
    11:00 +38°C° 0 mm 3 mps 752 mmHg 49%
    12:00 +38°C° 0 mm 3 mps 752 mmHg 48%
    13:00 +40°C° 0 mm 4 mps 752 mmHg 47%
    14:00 +37°C° 0.7 mm 4 mps 751 mmHg 58%
    15:00 +35°C° 0.7 mm 5 mps 751 mmHg 70%
    16:00 +33°C° 0.7 mm 5 mps 750 mmHg 81%
    17:00 +32°C° 1.5 mm 5 mps 751 mmHg 85%
    18:00 +30°C° 1.5 mm 5 mps 751 mmHg 89%
    19:00 +29°C° 1.5 mm 4 mps 751 mmHg 93%
    20:00 +29°C° 1.3 mm 4 mps 752 mmHg 94%
    21:00 +28°C° 1.3 mm 4 mps 752 mmHg 94%
    22:00 +28°C° 1.3 mm 4 mps 753 mmHg 95%
    23:00 +28°C° 0.7 mm 3 mps 753 mmHg 94%

    Mañana, 24 Mayo, Viernes

    Tiempo Temperatura Precipitaciones Viento Presión Humedad
    00:00 +28°C° 0.7 mm 3 mps 752 mmHg 93%
    01:00 +28°C° 0.7 mm 3 mps 752 mmHg 92%
    02:00 +28°C° 0.1 mm 3 mps 752 mmHg 91%
    03:00 +27°C° 0.1 mm 3 mps 751 mmHg 91%
    04:00 +27°C° 0.1 mm 2 mps 751 mmHg 90%
    05:00 +28°C° 0 mm 2 mps 751 mmHg 86%
    06:00 +29°C° 0 mm 2 mps 752 mmHg 83%
    07:00 +30°C° 0 mm 2 mps 752 mmHg 79%
    08:00 +32°C° 0 mm 2 mps 752 mmHg 70%
    09:00 +35°C° 0 mm 2 mps 752 mmHg 60%
    10:00 +37°C° 0 mm 1 mps 753 mmHg 50%
    11:00 +38°C° 0 mm 2 mps 752 mmHg 49%
    12:00 +39°C° 0 mm 3 mps 752 mmHg 48%
    13:00 +40°C° 0 mm 4 mps 751 mmHg 47%
    14:00 +37°C° 2.5 mm 5 mps 751 mmHg 60%
    15:00 +35°C° 2.5 mm 5 mps 750 mmHg 73%
    16:00 +33°C° 2.5 mm 5 mps 750 mmHg 86%
    17:00 +32°C° 0.6 mm 4 mps 750 mmHg 89%
    18:00 +30°C° 0.6 mm 4 mps 751 mmHg 91%
    19:00 +29°C° 0.6 mm 3 mps 751 mmHg 93%
    20:00 +28°C° 0 mm 3 mps 751 mmHg 92%
    21:00 +28°C° 0 mm 3 mps 752 mmHg 91%
    22:00 +28°C° 0 mm 3 mps 752 mmHg 90%
    23:00 +28°C° 0.1 mm 2 mps 752 mmHg 88%

    Pasado mañana, 25 Mayo, Sábado

    Tiempo Temperatura Precipitaciones Viento Presión Humedad
    00:00 +28°C° 0.1 mm 2 mps 752 mmHg 86%
    01:00 +28°C° 0.1 mm 2 mps 751 mmHg 84%
    02:00 +28°C° 0 mm 2 mps 751 mmHg 82%
    03:00 +28°C° 0 mm 2 mps 751 mmHg 81%
    04:00 +28°C° 0 mm 1 mps 750 mmHg 79%
    05:00 +28°C° 0 mm 1 mps 751 mmHg 77%
    06:00 +29°C° 0 mm 1 mps 751 mmHg 76%
    07:00 +27°C° 0 mm 0 mps 751 mmHg 74%
    08:00 +31°C° 0 mm 1 mps 751 mmHg 66%
    09:00 +33°C° 0 mm 1 mps 751 mmHg 58%
    10:00 +36°C° 0 mm 1 mps 752 mmHg 50%
    11:00 +37°C° 0 mm 2 mps 751 mmHg 49%
    12:00 +38°C° 0 mm 3 mps 750 mmHg 47%
    13:00 +38°C° 0 mm 4 mps 750 mmHg 46%
    14:00 +37°C° 0.3 mm 4 mps 749 mmHg 56%
    15:00 +35°C° 0.3 mm 5 mps 749 mmHg 66%
    16:00 +34°C° 0.3 mm 5 mps 748 mmHg 76%
    17:00 +33°C° 3.1 mm 5 mps 749 mmHg 81%
    18:00 +32°C° 3.1 mm 5 mps 750 mmHg 86%
    19:00 +30°C° 3.1 mm 5 mps 750 mmHg 91%
    20:00 +29°C° 1.2 mm 4 mps 751 mmHg 91%
    21:00 +29°C° 1.2 mm 4 mps 751 mmHg 92%
    22:00 +29°C° 1.2 mm 4 mps 752 mmHg 92%
    23:00 +29°C° 0.4 mm 3 mps 751 mmHg 91%

    26 Mayo, Domingo

    Tiempo Temperatura Precipitaciones Viento Presión Humedad
    00:00 +29°C° 0.4 mm 3 mps 751 mmHg 90%
    01:00 +28°C° 0.4 mm 3 mps 750 mmHg 89%
    02:00 +28°C° 0.2 mm 3 mps 750 mmHg 89%
    03:00 +28°C° 0.2 mm 2 mps 750 mmHg 89%
    04:00 +28°C° 0.2 mm 2 mps 750 mmHg 89%
    05:00 +29°C° 0.4 mm 2 mps 750 mmHg 87%
    06:00 +29°C° 0.4 mm 2 mps 751 mmHg 86%
    07:00 +30°C° 0.4 mm 2 mps 751 mmHg 85%
    08:00 +32°C° 0 mm 2 mps 751 mmHg 74%
    09:00 +35°C° 0 mm 2 mps 752 mmHg 64%
    10:00 +37°C° 0 mm 2 mps 752 mmHg 53%
    11:00 +38°C° 0 mm 3 mps 751 mmHg 50%
    12:00 +40°C° 0 mm 4 mps 750 mmHg 47%
    13:00 +40°C° 0 mm 4 mps 750 mmHg 45%
    14:00 +39°C° 0 mm 5 mps 749 mmHg 48%
    15:00 +39°C° 0 mm 5 mps 749 mmHg 52%
    16:00 +37°C° 0 mm 5 mps 749 mmHg 55%
    17:00 +35°C° 0 mm 5 mps 749 mmHg 60%
    18:00 +34°C° 0 mm 5 mps 750 mmHg 66%
    19:00 +32°C° 0 mm 5 mps 750 mmHg 71%
    20:00 +30°C° 0.4 mm 5 mps 751 mmHg 75%
    21:00 +29°C° 0.4 mm 4 mps 751 mmHg 79%
    22:00 +29°C° 0.4 mm 4 mps 752 mmHg 84%
    23:00 +28°C° 0.3 mm 4 mps 751 mmHg 83%

    27 Mayo, Lunes

    Tiempo Temperatura Precipitaciones Viento Presión Humedad
    00:00 +28°C° 0.3 mm 3 mps 750 mmHg 82%
    01:00 +28°C° 0.3 mm 2 mps 750 mmHg 82%
    02:00 +28°C° 0.7 mm 2 mps 750 mmHg 81%
    03:00 +28°C° 0.7 mm 2 mps 750 mmHg 81%
    04:00 +28°C° 0.7 mm 2 mps 750 mmHg 81%
    05:00 +28°C° 1 mm 2 mps 750 mmHg 80%
    06:00 +29°C° 1 mm 2 mps 751 mmHg 80%
    07:00 +29°C° 1 mm 2 mps 751 mmHg 79%
    08:00 +31°C° 0.3 mm 2 mps 751 mmHg 73%
    09:00 +34°C° 0.3 mm 2 mps 751 mmHg 66%
    10:00 +35°C° 0.3 mm 1 mps 751 mmHg 59%
    11:00 +36°C° 0 mm 2 mps 751 mmHg 56%
    12:00 +37°C° 0 mm 3 mps 750 mmHg 53%
    13:00 +38°C° 0 mm 4 mps 750 mmHg 51%
    14:00 +36°C° 0.7 mm 5 mps 749 mmHg 60%
    15:00 +35°C° 0.7 mm 5 mps 749 mmHg 70%
    16:00 +34°C° 0.7 mm 5 mps 749 mmHg 79%
    17:00 +33°C° 0.4 mm 5 mps 749 mmHg 83%
    18:00 +30°C° 0.4 mm 5 mps 750 mmHg 87%
    19:00 +29°C° 0.4 mm 5 mps 751 mmHg 90%
    20:00 +29°C° 1.2 mm 5 mps 751 mmHg 91%
    21:00 +28°C° 1.2 mm 4 mps 751 mmHg 92%
    22:00 +28°C° 1.2 mm 4 mps 752 mmHg 94%
    23:00 +28°C° 0.9 mm 4 mps 751 mmHg 93%

    28 Mayo, Martes

    Tiempo Temperatura Precipitaciones Viento Presión Humedad
    00:00 +28°C° 0.9 mm 4 mps 751 mmHg 93%
    01:00 +27°C° 0.9 mm 4 mps 751 mmHg 93%
    02:00 +27°C° 0.3 mm 3 mps 750 mmHg 92%
    03:00 +27°C° 0.3 mm 3 mps 750 mmHg 91%
    04:00 +27°C° 0.3 mm 3 mps 750 mmHg 90%
    05:00 +28°C° 0.1 mm 3 mps 751 mmHg 88%
    06:00 +28°C° 0.1 mm 3 mps 751 mmHg 86%
    07:00 +29°C° 0.1 mm 2 mps 752 mmHg 84%
    08:00 +31°C° 0 mm 3 mps 752 mmHg 74%
    09:00 +34°C° 0 mm 3 mps 752 mmHg 65%
    10:00 +36°C° 0 mm 3 mps 752 mmHg 55%
    11:00 +37°C° 0 mm 4 mps 752 mmHg 53%
    12:00 +37°C° 0 mm 5 mps 751 mmHg 51%
    13:00 +39°C° 0 mm 6 mps 751 mmHg 49%
    14:00 +36°C° 0.3 mm 6 mps 750 mmHg 58%
    15:00 +35°C° 0.3 mm 6 mps 750 mmHg 68%
    16:00 +33°C° 0.3 mm 6 mps 750 mmHg 77%
    17:00 +32°C° 1 mm 6 mps 750 mmHg 82%
    18:00 +30°C° 1 mm 6 mps 751 mmHg 86%
    19:00 +29°C° 1 mm 5 mps 751 mmHg 91%
    20:00 +28°C° 0.6 mm 5 mps 751 mmHg 92%
    21:00 +28°C° 0.6 mm 5 mps 752 mmHg 93%
    22:00 +28°C° 0.6 mm 4 mps 752 mmHg 93%
    23:00 +27°C° 0.4 mm 4 mps 752 mmHg 93%
    Mostrar más